COSMOS 2251 DEB, 33920

Orbit data source: Space-Track

COSMOS 2251 DEB, 33920 is space debris in LEO originally from a launch on Wed, 16 Jun 1993 UTC launched from the Plesetsk Missile And Space Complex (PKMTR). The debris from Iridium 33, an American commercial communications satellite, has been tracked extensively since its accidental collision with the defunct Russian satellite Cosmos 2251 in 2009. This event, occurring at high speed in low Earth orbit (LEO), generated thousands of pieces of space debris, significantly increasing the risk of further collisions. The Iridium 33 debris cloud has impacted space traffic management and orbital debris mitigation strategies, making it a subject of ongoing study in space situational awareness.

Loading next visibility...
Identifier
33920, 1993-036DZ
Orbit
LEO
Country
Flag of CISCIS
Related business
Manufacturer
Unknown
Mission
Spacecraft
Bus & Motor
Unknown
Mass
Unknown
Launch date (UTC)
1993-06-16 (33 years ago)
Launch vehicle
Unknown
Launch site
Plesetsk Missile And Space Complex (PKMTR)
Object type
Payload
Rocket body
Debris
Shape & HBR
Unknown shape, 0.1 m
Radar Cross Section
Small (<0.1 m²)

Expand to show TLE details & history
Last TLE update: 11 hours ago

TLE from 11 hours ago
0 COSMOS 2251 DEB
1 33920U 93036DZ  25353.90641906  .00005020  00000-0  10786-2 0  9992
2 33920  74.0622 284.8074 0037980 290.4040  69.3048 14.58379878882197
Epoch: 2025-12-19T21:45Z
TLE epoch observation values (Epoch: 2025-12-19T21:45:14.606Z)
Latitude
0.00002°
Longitude
-130.24431°
Altitude
691.639 km
Speed
7.516 km/s
True Right ascension
18h 59m 13s
True Declination
0° 00' 00"
Sunlit
Object was in daylight at epoch
Visualization orbit readout
Latitude
Unknown
Longitude
Unknown
Altitude
Unknown
Speed
Unknown
Apparent Right ascension
Unknown
Apparent Declination
Unknown
Sunlit
N/A
Visualization observer readout
Local Sidereal Time
07:46:10
Azimuth
Unknown
Elevation
Unknown
Doppler factor
Unknown
Orbital elements
Apogee altitude
722.875 km
Perigee altitude
669.139 km
Semi-major axis
7,074.144 km
Eccentricity
0.0038
Inclination
74.0622°
RAAN
284.8074°
Arg. of periapsis
290.404°
True anomaly
69.71262°
Mean anomaly
69.3048°
Eccentric anomaly
69.50864°
Mean motion
3.64781 °/min
Orbital period
98.69 mins
BSTAR
0.0010786
Loading maneuver chart data...
Computing Atmospheric mass density...

Documentation

Showing up to 5 results
|